Simultaneous Nadir Overpasses (SNOs) Predictions

Prediction of SNOs between AQUA and NPP Satellite Orbit:

Table of predicted SNOs for the next 14.0 days since TLE Epoch: 8/3/2015
Index Date (AQUA) Time (AQUA) Lat,Lon (AQUA) SZA (AQUA ) Date (NPP) Time (NPP) Lat,Lon (NPP) SZA (NPP ) Distance(km) Time Diff (sec)
1 08/04/2015 19:22:37 69.44, 115.74 87.88 08/04/2015 19:21:41 69.44, 115.76 87.93 0.87 56
2 08/04/2015 20:11:13 -72.28, -72.23 95.12 08/04/2015 20:11:33 -72.29, -72.20 95.15 1.14 20
3 08/07/2015 11:38:53 70.17,-127.37 87.81 08/07/2015 11:38:20 70.17,-127.39 87.85 0.73 33
4 08/07/2015 12:27:33 -72.78, 44.58 94.96 08/07/2015 12:28:16 -72.78, 44.57 95.00 0.27 43
5 08/10/2015 03:55:05 71.10, -10.10 87.56 08/10/2015 03:54:55 71.10, -10.12 87.57 0.73 10
6 08/10/2015 04:43:49 -73.46, 161.83 94.98 08/10/2015 04:44:55 -73.46, 161.83 95.04 0.04 66
7 08/12/2015 19:22:53 -68.63, -65.32 89.14 08/12/2015 19:21:50 -68.63, -65.37 89.06 2.08 63
8 08/12/2015 20:11:13 72.16, 107.55 87.18 08/12/2015 20:11:26 72.16, 107.58 87.16 0.95 13
9 08/15/2015 11:38:54 -70.14, 52.56 89.94 08/15/2015 11:38:14 -70.14, 52.56 89.90 0.04 40




NCC Satellite Simultaneous Nadir Overpasses (SNOs) Prediction Service
